Time,TemperatureF,DewpointF,PressureIn,WindDirection,WindDirectionDegrees,WindSpeedMPH,WindSpeedGustMPH,Humidity,HourlyPrecipIn,Conditions,Clouds,dailyrainin,SoftwareType,DateUTC
2013-01-23 00:12:00,10.0,5.0,-100.00,North,355,2.0,8.0,79,-99.99,,,-99.99,,2013-01-23 05:12:00,
2013-01-23 00:23:00,10.0,5.0,-100.00,NW,310,1.0,6.0,79,-99.99,,,-99.99,,2013-01-23 05:23:00,
2013-01-23 02:13:00,9.0,-3.0,-100.00,NW,305,3.0,6.0,58,-99.99,,,-99.99,,2013-01-23 07:13:00,
2013-01-23 02:23:00,8.0,-3.0,-100.00,NW,325,2.0,5.0,58,-99.99,,,-99.99,,2013-01-23 07:23:00,
2013-01-23 02:33:00,8.0,-3.0,-100.00,NW,325,2.0,5.0,59,-99.99,,,-99.99,,2013-01-23 07:33:00,
2013-01-23 02:43:00,8.0,-3.0,-100.00,NW,325,2.0,6.0,59,-99.99,,,-99.99,,2013-01-23 07:43:00,
2013-01-23 02:52:00,8.0,-3.0,-100.00,NW,325,2.0,6.0,59,-99.99,,,-99.99,,2013-01-23 07:52:00,
2013-01-23 03:02:00,8.0,-4.0,-100.00,NW,310,2.0,7.0,57,-99.99,,,-99.99,,2013-01-23 08:02:00,
2013-01-23 03:13:00,8.0,-4.0,-100.00,West,280,2.0,7.0,56,-99.99,,,-99.99,,2013-01-23 08:13:00,
2013-01-23 03:23:00,9.0,-5.0,-100.00,NW,315,3.0,8.0,53,-99.99,,,-99.99,,2013-01-23 08:23:00,
2013-01-23 03:33:00,8.0,-5.0,-100.00,West,265,2.0,6.0,53,-99.99,,,-99.99,,2013-01-23 08:33:00,
2013-01-23 03:43:00,8.0,-6.0,-100.00,NW,305,2.0,7.0,51,-99.99,,,-99.99,,2013-01-23 08:43:00,
2013-01-23 03:53:00,8.0,-6.0,-100.00,NW,305,2.0,7.0,51,-99.99,,,-99.99,,2013-01-23 08:53:00,
2013-01-23 04:30:00,3.0,-6.0,-100.00,North,10,1.0,6.0,66,-99.99,,,-99.99,,2013-01-23 09:30:00,
2013-01-23 05:12:00,3.0,-6.0,-100.00,North,10,1.0,6.0,66,-99.99,,,-99.99,,2013-01-23 10:12:00,
2013-01-23 05:23:00,3.0,-6.0,-100.00,North,10,1.0,6.0,66,-99.99,,,-99.99,,2013-01-23 10:23:00,
2013-01-23 05:43:00,5.0,-7.0,-100.00,West,265,2.0,6.0,58,-99.99,,,-99.99,,2013-01-23 10:43:00,
2013-01-23 05:53:00,5.0,-8.0,-100.00,West,270,2.0,7.0,54,-99.99,,,-99.99,,2013-01-23 10:53:00,
2013-01-23 06:03:00,5.0,-9.0,-100.00,West,265,3.0,7.0,51,-99.99,,,-99.99,,2013-01-23 11:03:00,
2013-01-23 06:12:00,5.0,-9.0,-100.00,West,270,2.0,5.0,51,-99.99,,,-99.99,,2013-01-23 11:12:00,
2013-01-23 06:23:00,5.0,-9.0,-100.00,West,270,2.0,5.0,51,-99.99,,,-99.99,,2013-01-23 11:23:00,
2013-01-23 08:13:00,3.0,-6.0,-100.00,South,190,2.0,5.0,65,-99.99,,,-99.99,,2013-01-23 13:13:00,
2013-01-23 08:23:00,3.0,-7.0,-100.00,NW,320,0.0,3.0,63,-99.99,,,-99.99,,2013-01-23 13:23:00,
2013-01-23 08:33:00,4.0,-7.0,-100.00,South,190,2.0,5.0,61,-99.99,,,-99.99,,2013-01-23 13:33:00,
2013-01-23 08:43:00,3.0,-7.0,-100.00,NE,55,0.0,6.0,63,-99.99,,,-99.99,,2013-01-23 13:43:00,
2013-01-23 08:53:00,4.0,-6.0,-100.00,SE,140,1.0,2.0,63,-99.99,,,-99.99,,2013-01-23 13:53:00,
2013-01-23 09:03:00,5.0,-6.0,-100.00,SSE,150,1.0,3.0,58,-99.99,,,-99.99,,2013-01-23 14:03:00,
2013-01-23 09:12:00,6.0,-6.0,-100.00,ENE,65,1.0,5.0,57,-99.99,,,-99.99,,2013-01-23 14:12:00,
2013-01-23 10:13:00,9.0,-7.0,-100.00,SSW,200,2.0,5.0,48,-99.99,,,-99.99,,2013-01-23 15:13:00,
2013-01-23 10:23:00,10.0,-6.0,-100.00,South,175,2.0,5.0,47,-99.99,,,-99.99,,2013-01-23 15:23:00,
2013-01-23 10:30:00,9.0,-7.0,-100.00,North,355,10.0,18.0,47,-99.99,,,-99.99,,2013-01-23 15:30:00,
2013-01-23 10:33:00,9.0,-7.0,-100.00,NNE,30,1.0,5.0,48,-99.99,,,-99.99,,2013-01-23 15:33:00,
2013-01-23 10:43:00,9.0,-7.0,-100.00,North,10,6.0,13.0,48,-99.99,,,-99.99,,2013-01-23 15:43:00,
2013-01-23 10:53:00,9.0,-7.0,-100.00,North,5,7.0,12.0,48,-99.99,,,-99.99,,2013-01-23 15:53:00,
2013-01-23 11:03:00,9.0,-6.0,-100.00,North,350,5.0,14.0,49,-99.99,,,-99.99,,2013-01-23 16:03:00,
2013-01-23 11:12:00,9.0,-7.0,-100.00,North,355,10.0,18.0,47,-99.99,,,-99.99,,2013-01-23 16:12:00,
2013-01-23 11:23:00,9.0,-7.0,-100.00,North,355,10.0,18.0,47,-99.99,,,-99.99,,2013-01-23 16:23:00,
2013-01-23 12:12:00,11.0,-8.0,-100.00,NNE,15,12.0,20.0,42,-99.99,,,-99.99,,2013-01-23 17:12:00,
2013-01-23 12:23:00,11.0,-8.0,-100.00,NNE,15,12.0,20.0,42,-99.99,,,-99.99,,2013-01-23 17:23:00,
2013-01-23 12:34:00,11.0,-9.0,-100.00,North,10,10.0,18.0,39,-99.99,,,-99.99,,2013-01-23 17:34:00,
2013-01-23 12:43:00,12.0,-8.0,-100.00,WNW,290,9.0,24.0,39,-99.99,,,-99.99,,2013-01-23 17:43:00,
2013-01-23 12:53:00,11.0,-9.0,-100.00,NW,320,8.0,22.0,38,-99.99,,,-99.99,,2013-01-23 17:53:00,
2013-01-23 13:04:00,11.0,-9.0,-100.00,North,5,15.0,23.0,39,-99.99,,,-99.99,,2013-01-23 18:04:00,
2013-01-23 14:23:00,11.0,-10.0,-100.00,North,355,9.0,23.0,38,-99.99,,,-99.99,,2013-01-23 19:23:00,
2013-01-23 14:33:00,11.0,-11.0,-100.00,North,355,12.0,23.0,36,-99.99,,,-99.99,,2013-01-23 19:33:00,
2013-01-23 14:43:00,11.0,-10.0,-100.00,NNW,335,8.0,17.0,37,-99.99,,,-99.99,,2013-01-23 19:43:00,
2013-01-23 14:53:00,11.0,-11.0,-100.00,North,0,9.0,14.0,36,-99.99,,,-99.99,,2013-01-23 19:53:00,
2013-01-23 15:03:00,11.0,-11.0,-100.00,NW,315,7.0,17.0,35,-99.99,,,-99.99,,2013-01-23 20:03:00,
2013-01-23 15:13:00,12.0,-10.0,-100.00,NNE,15,9.0,15.0,35,-99.99,,,-99.99,,2013-01-23 20:13:00,
2013-01-23 15:23:00,12.0,-11.0,-100.00,WNW,290,10.0,18.0,34,-99.99,,,-99.99,,2013-01-23 20:23:00,
2013-01-23 15:33:00,12.0,-11.0,-100.00,WNW,290,10.0,18.0,34,-99.99,,,-99.99,,2013-01-23 20:33:00,
2013-01-23 15:43:00,12.0,-11.0,-100.00,North,350,8.0,14.0,34,-99.99,,,-99.99,,2013-01-23 20:43:00,
2013-01-23 15:54:00,12.0,-11.0,-100.00,NW,305,6.0,13.0,33,-99.99,,,-99.99,,2013-01-23 20:54:00,
2013-01-23 16:03:00,13.0,-12.0,-100.00,NW,310,9.0,22.0,32,-99.99,,,-99.99,,2013-01-23 21:03:00,
2013-01-23 16:12:00,13.0,-12.0,-100.00,WNW,290,8.0,20.0,32,-99.99,,,-99.99,,2013-01-23 21:12:00,
2013-01-23 16:30:00,11.0,-13.0,-100.00,North,355,5.0,13.0,33,-99.99,,,-99.99,,2013-01-23 21:30:00,
2013-01-23 17:13:00,11.0,-13.0,-100.00,North,355,5.0,13.0,33,-99.99,,,-99.99,,2013-01-23 22:13:00,
2013-01-23 17:23:00,11.0,-13.0,-100.00,North,355,5.0,13.0,33,-99.99,,,-99.99,,2013-01-23 22:23:00,
2013-01-23 17:43:00,10.0,-13.0,-100.00,NNW,335,7.0,14.0,34,-99.99,,,-99.99,,2013-01-23 22:43:00,
2013-01-23 17:53:00,10.0,-13.0,-100.00,NNW,335,7.0,14.0,34,-99.99,,,-99.99,,2013-01-23 22:53:00,
2013-01-23 18:03:00,9.0,-12.0,-100.00,NNW,335,3.0,10.0,36,-99.99,,,-99.99,,2013-01-23 23:03:00,
2013-01-23 20:43:00,4.0,-10.0,-100.00,WNW,300,2.0,2.0,52,-99.99,,,-99.99,,2013-01-24 01:43:00,
2013-01-23 20:50:00,3.0,-10.0,-100.00,WNW,290,1.0,7.0,54,-99.99,,,-99.99,,2013-01-24 01:50:00,
2013-01-23 20:52:00,4.0,-10.0,-100.00,WNW,300,2.0,2.0,52,-99.99,,,-99.99,,2013-01-24 01:52:00,
2013-01-23 21:03:00,2.0,-9.0,-100.00,WSW,240,2.0,5.0,59,-99.99,,,-99.99,,2013-01-24 02:03:00,
2013-01-23 21:12:00,2.0,-9.0,-100.00,West,265,1.0,5.0,60,-99.99,,,-99.99,,2013-01-24 02:12:00,
2013-01-23 21:23:00,3.0,-9.0,-100.00,WNW,290,1.0,7.0,56,-99.99,,,-99.99,,2013-01-24 02:23:00,
2013-01-23 21:33:00,3.0,-10.0,-100.00,WNW,290,1.0,7.0,54,-99.99,,,-99.99,,2013-01-24 02:33:00,
2013-01-23 21:42:00,3.0,-10.0,-100.00,WNW,290,1.0,7.0,54,-99.99,,,-99.99,,2013-01-24 02:42:00,
2013-01-23 22:00:00,3.0,-10.0,-100.00,West,275,1.0,6.0,54,-99.99,,,-99.99,,2013-01-24 03:00:00,
2013-01-23 22:03:00,4.0,-11.0,-100.00,NW,310,1.0,6.0,50,-99.99,,,-99.99,,2013-01-24 03:03:00,
2013-01-23 22:12:00,4.0,-11.0,-100.00,NW,310,1.0,6.0,50,-99.99,,,-99.99,,2013-01-24 03:12:00,
2013-01-23 22:22:00,4.0,-11.0,-100.00,NW,310,2.0,8.0,48,-99.99,,,-99.99,,2013-01-24 03:22:00,
2013-01-23 22:33:00,4.0,-10.0,-100.00,WNW,285,1.0,5.0,51,-99.99,,,-99.99,,2013-01-24 03:33:00,
2013-01-23 22:43:00,3.0,-10.0,-100.00,West,275,1.0,6.0,54,-99.99,,,-99.99,,2013-01-24 03:43:00,
2013-01-23 22:52:00,3.0,-10.0,-100.00,West,275,1.0,6.0,54,-99.99,,,-99.99,,2013-01-24 03:52:00,
2013-01-23 23:12:00,0.0,-10.0,-100.00,South,180,2.0,2.0,59,-99.99,,,-99.99,,2013-01-24 04:12:00,
2013-01-23 23:20:00,0.0,-10.0,-100.00,SW,220,1.0,2.0,63,-99.99,,,-99.99,,2013-01-24 04:20:00,
2013-01-23 23:22:00,0.0,-10.0,-100.00,South,180,2.0,2.0,59,-99.99,,,-99.99,,2013-01-24 04:22:00,
2013-01-23 23:33:00,0.0,-10.0,-100.00,East,95,1.0,3.0,61,-99.99,,,-99.99,,2013-01-24 04:33:00,
2013-01-23 23:43:00,0.0,-10.0,-100.00,SSE,165,1.0,2.0,63,-99.99,,,-99.99,,2013-01-24 04:43:00,
2013-01-23 23:52:00,0.0,-9.0,-100.00,South,175,1.0,2.0,65,-99.99,,,-99.99,,2013-01-24 04:52:00,